Location: Cedar Brake
(32.2526°N, 97.8459°W)
Time: 20:04:26
(UTC+00:00)

COSMOS 2428 - Pass Details

Date: 22 April 2026
Orbit: 844 x 855 km, 70.9° (Epoch: 21 May)

Event Time Altitude Azimuth Distance (km) Brightness Sun altitude
Rises 10:48:40 0° 341° (NNW) 3,420 5.9 -13.9°
Reaches altitude 10° 10:51:08 10° 343° (NNW) 2,480 5.2 -13.4°
Maximum altitude 10:56:50 77° 69° (ENE) 873 2.9 -12.3°
Drops below altitude 10° 11:02:29 10° 156° (SSE) 2,459 5.2 -11.2°
Sets 11:04:56 0° 157° (SSE) 3,389 5.9 -10.7°
